Location: Palomar Mountain Lodge
(33.3110°N, 116.8495°W)
Time: 21:06:30
(UTC-07:00)

SJ-11-01 - Pass Details

Date: 19 May 2017
Orbit: 686 x 700 km, 98.1° (Epoch: 16 October)

Event Time Altitude Azimuth Distance (km) Brightness Sun altitude
Exits shadow 20:51:37 15° 154° (SSE) 1,791 5.9 -13.1°
Maximum altitude 20:55:21 64° 75° (ENE) 762 4.3 -13.8°
Drops below altitude 10° 20:59:59 10° 355° (N) 2,142 7.4 -14.6°
Sets 21:02:15 0° 352° (N) 3,064 8.3 -14.9°
